Time,TemperatureF,DewpointF,PressureIn,WindDirection,WindDirectionDegrees,WindSpeedMPH,WindSpeedGustMPH,Humidity,HourlyPrecipIn,Conditions,Clouds,dailyrainin,SoftwareType,DateUTC
2013-02-11 00:03:00,46.5,46.0,30.10,ENE,76,8.0,12.0,98,0.04,,,0.00,weatherlink.com 1.10,2013-02-11 05:03:00,
2013-02-11 00:20:00,46.6,46.0,30.10,East,94,1.0,8.0,98,0.02,,,0.00,weatherlink.com 1.10,2013-02-11 05:20:00,
2013-02-11 00:36:00,46.8,46.0,30.09,NE,52,5.0,8.0,98,0.01,,,0.00,weatherlink.com 1.10,2013-02-11 05:36:00,
2013-02-11 00:52:00,46.9,46.0,30.09,East,84,3.0,8.0,98,0.00,,,0.00,weatherlink.com 1.10,2013-02-11 05:52:00,
2013-02-11 01:00:00,47.7,47.2,30.08,NE,36,0.0,9.0,98,0.03,,---,0.03,VWS V14.01,2013-02-11 06:00:00,
2013-02-11 01:09:00,47.1,47.0,30.10,ENE,59,3.0,7.0,98,0.00,,,0.00,weatherlink.com 1.10,2013-02-11 06:09:00,
2013-02-11 01:25:00,47.3,47.0,30.10,ENE,67,1.0,4.0,98,0.02,,,0.02,weatherlink.com 1.10,2013-02-11 06:25:00,
2013-02-11 01:41:00,47.5,47.0,30.09,ENE,73,1.0,8.0,98,0.03,,,0.03,weatherlink.com 1.10,2013-02-11 06:41:00,
2013-02-11 01:59:00,47.7,47.0,30.09,NE,36,0.0,5.0,98,0.03,,,0.03,weatherlink.com 1.10,2013-02-11 06:59:00,
2013-02-11 02:15:00,47.7,47.0,30.06,ESE,107,2.0,7.0,98,0.03,,,0.04,weatherlink.com 1.10,2013-02-11 07:15:00,
2013-02-11 02:31:00,47.8,47.0,30.05,ENE,62,4.0,9.0,98,0.01,,,0.04,weatherlink.com 1.10,2013-02-11 07:31:00,
2013-02-11 02:47:00,47.9,47.0,30.06,ESE,113,3.0,6.0,98,0.02,,,0.05,weatherlink.com 1.10,2013-02-11 07:47:00,
2013-02-11 03:00:00,48.3,47.8,30.07,NE,49,0.0,9.0,98,0.06,,---,0.09,VWS V14.01,2013-02-11 08:00:00,
2013-02-11 03:04:00,48.0,48.0,30.07,NNE,17,1.0,7.0,98,0.03,,,0.06,weatherlink.com 1.10,2013-02-11 08:04:00,
2013-02-11 03:20:00,48.1,48.0,30.06,ENE,57,1.0,5.0,98,0.02,,,0.06,weatherlink.com 1.10,2013-02-11 08:20:00,
2013-02-11 03:37:00,48.2,48.0,30.06,ENE,71,2.0,4.0,98,0.02,,,0.07,weatherlink.com 1.10,2013-02-11 08:37:00,
2013-02-11 03:53:00,48.3,48.0,30.07,NNE,12,0.0,5.0,98,0.02,,,0.07,weatherlink.com 1.10,2013-02-11 08:53:00,
2013-02-11 04:09:00,48.4,48.0,30.06,East,95,1.0,4.0,98,0.06,,,0.12,weatherlink.com 1.10,2013-02-11 09:09:00,
2013-02-11 04:26:00,48.5,48.0,30.06,North,5,1.0,2.0,98,0.07,,,0.13,weatherlink.com 1.10,2013-02-11 09:26:00,
2013-02-11 04:42:00,48.6,48.0,30.05,NE,35,1.0,2.0,98,0.08,,,0.15,weatherlink.com 1.10,2013-02-11 09:42:00,
2013-02-11 04:59:00,48.8,48.0,30.05,NE,37,0.0,1.0,98,0.08,,,0.16,weatherlink.com 1.10,2013-02-11 09:59:00,
2013-02-11 05:00:00,48.9,48.4,30.03,NE,46,0.0,4.0,98,0.07,,---,0.16,VWS V14.01,2013-02-11 10:00:00,
2013-02-11 05:16:00,48.8,48.0,30.04,NNE,28,0.0,3.0,98,0.03,,,0.16,weatherlink.com 1.10,2013-02-11 10:16:00,
2013-02-11 05:32:00,48.8,48.0,30.04,NNE,25,3.0,4.0,98,0.02,,,0.16,weatherlink.com 1.10,2013-02-11 10:32:00,
2013-02-11 05:48:00,48.9,48.0,30.04,WSW,238,0.0,3.0,98,0.00,,,0.16,weatherlink.com 1.10,2013-02-11 10:48:00,
2013-02-11 06:05:00,49.0,49.0,30.02,NNE,28,0.0,3.0,99,0.00,,,0.16,weatherlink.com 1.10,2013-02-11 11:05:00,
2013-02-11 06:21:00,49.1,49.0,30.03,NNE,17,0.0,2.0,99,0.00,,,0.16,weatherlink.com 1.10,2013-02-11 11:21:00,
2013-02-11 06:37:00,49.3,49.0,30.04,NNE,16,0.0,1.0,99,0.00,,,0.16,weatherlink.com 1.10,2013-02-11 11:37:00,
2013-02-11 06:54:00,49.4,49.0,30.05,WNW,294,0.0,0.0,99,0.00,,,0.16,weatherlink.com 1.10,2013-02-11 11:54:00,
2013-02-11 07:00:00,50.1,49.8,30.04,ENE,78,2.0,3.0,99,0.01,,---,0.17,VWS V14.01,2013-02-11 12:00:00,
2013-02-11 07:10:00,49.6,49.0,30.07,WNW,296,0.0,0.0,99,0.00,,,0.16,weatherlink.com 1.10,2013-02-11 12:10:00,
2013-02-11 07:26:00,49.7,50.0,30.06,WNW,296,0.0,0.0,99,0.00,,,0.16,weatherlink.com 1.10,2013-02-11 12:26:00,
2013-02-11 07:43:00,49.9,50.0,30.05,NE,41,0.0,1.0,99,0.00,,,0.16,weatherlink.com 1.10,2013-02-11 12:43:00,
2013-02-11 08:00:00,50.1,50.0,30.04,ENE,78,2.0,3.0,99,0.01,,,0.17,weatherlink.com 1.10,2013-02-11 13:00:00,
2013-02-11 08:16:00,50.1,50.0,30.05,ENE,78,0.0,2.0,99,0.02,,,0.18,weatherlink.com 1.10,2013-02-11 13:16:00,
2013-02-11 08:33:00,50.3,50.0,30.05,NNE,30,0.0,1.0,99,0.02,,,0.18,weatherlink.com 1.10,2013-02-11 13:33:00,
2013-02-11 08:49:00,50.4,50.0,30.05,NNW,340,0.0,3.0,99,0.02,,,0.18,weatherlink.com 1.10,2013-02-11 13:49:00,
2013-02-11 09:00:00,51.2,50.9,30.08,WNW,284,0.0,3.0,99,0.02,,---,0.19,VWS V14.01,2013-02-11 14:00:00,
2013-02-11 09:05:00,50.4,50.0,30.05,WNW,293,0.0,3.0,99,0.00,,,0.18,weatherlink.com 1.10,2013-02-11 14:05:00,
2013-02-11 09:22:00,50.5,50.0,30.05,North,355,0.0,2.0,99,0.00,,,0.18,weatherlink.com 1.10,2013-02-11 14:22:00,
2013-02-11 09:38:00,50.9,51.0,30.06,NW,314,2.0,2.0,99,0.00,,,0.18,weatherlink.com 1.10,2013-02-11 14:38:00,
2013-02-11 09:54:00,51.1,51.0,30.07,NW,308,2.0,3.0,99,0.01,,,0.19,weatherlink.com 1.10,2013-02-11 14:54:00,
2013-02-11 10:11:00,51.2,51.0,30.06,SSW,210,2.0,5.0,99,0.07,,,0.25,weatherlink.com 1.10,2013-02-11 15:11:00,
2013-02-11 10:27:00,51.3,51.0,30.06,NE,39,2.0,5.0,99,0.08,,,0.26,weatherlink.com 1.10,2013-02-11 15:27:00,
2013-02-11 10:44:00,51.3,51.0,30.06,SSE,153,8.0,9.0,99,0.08,,,0.26,weatherlink.com 1.10,2013-02-11 15:44:00,
2013-02-11 11:00:00,51.5,51.0,30.08,WNW,296,3.0,5.0,99,0.07,,,0.26,weatherlink.com 1.10,2013-02-11 16:00:00,
2013-02-11 11:17:00,51.8,52.0,30.08,SSW,202,0.0,7.0,99,0.01,,,0.26,weatherlink.com 1.10,2013-02-11 16:17:00,
2013-02-11 11:33:00,52.1,52.0,30.07,WSW,246,0.0,2.0,99,0.00,,,0.26,weatherlink.com 1.10,2013-02-11 16:33:00,
2013-02-11 11:49:00,52.6,52.0,30.08,SSW,192,0.0,4.0,99,0.00,,,0.26,weatherlink.com 1.10,2013-02-11 16:49:00,
2013-02-11 12:07:00,52.8,53.0,30.10,SW,229,1.0,6.0,99,0.00,,,0.26,weatherlink.com 1.10,2013-02-11 17:07:00,
2013-02-11 12:23:00,52.7,53.0,30.09,SSW,211,7.0,8.0,99,0.00,,,0.26,weatherlink.com 1.10,2013-02-11 17:23:00,
2013-02-11 12:39:00,53.1,53.0,30.07,South,179,2.0,5.0,99,0.00,,,0.26,weatherlink.com 1.10,2013-02-11 17:39:00,
2013-02-11 12:55:00,53.3,53.0,30.08,NW,306,1.0,9.0,99,0.00,,,0.26,weatherlink.com 1.10,2013-02-11 17:55:00,
2013-02-11 13:00:00,54.1,53.8,30.06,West,259,1.0,10.0,99,0.01,,---,0.27,VWS V14.01,2013-02-11 18:00:00,
2013-02-11 13:12:00,53.4,53.0,30.09,WNW,286,3.0,7.0,99,0.00,,,0.26,weatherlink.com 1.10,2013-02-11 18:12:00,
2013-02-11 13:28:00,53.6,53.0,30.08,WSW,250,2.0,7.0,99,0.01,,,0.27,weatherlink.com 1.10,2013-02-11 18:28:00,
2013-02-11 13:44:00,53.9,54.0,30.06,WSW,251,6.0,9.0,99,0.01,,,0.27,weatherlink.com 1.10,2013-02-11 18:44:00,
2013-02-11 14:01:00,54.1,54.0,30.06,WSW,244,1.0,9.0,99,0.01,,,0.27,weatherlink.com 1.10,2013-02-11 19:01:00,
2013-02-11 14:18:00,54.3,54.0,30.03,SSW,205,4.0,4.0,99,0.01,,,0.27,weatherlink.com 1.10,2013-02-11 19:18:00,
2013-02-11 14:34:00,54.3,54.0,30.05,West,261,5.0,10.0,99,0.00,,,0.27,weatherlink.com 1.10,2013-02-11 19:34:00,
2013-02-11 14:50:00,54.4,54.0,30.05,WNW,287,3.0,9.0,99,0.00,,,0.27,weatherlink.com 1.10,2013-02-11 19:50:00,
2013-02-11 15:00:00,54.5,54.0,30.02,West,269,2.0,11.0,98,0.01,,---,0.28,VWS V14.01,2013-02-11 20:00:00,
2013-02-11 15:07:00,54.4,54.0,30.06,WNW,298,2.0,9.0,99,0.01,,,0.28,weatherlink.com 1.10,2013-02-11 20:07:00,
2013-02-11 15:23:00,54.5,54.0,30.05,WNW,302,2.0,6.0,99,0.01,,,0.28,weatherlink.com 1.10,2013-02-11 20:23:00,
2013-02-11 15:39:00,54.5,54.0,30.03,West,267,1.0,5.0,98,0.01,,,0.28,weatherlink.com 1.10,2013-02-11 20:39:00,
2013-02-11 15:56:00,54.6,54.0,30.02,SW,227,0.0,3.0,98,0.00,,,0.28,weatherlink.com 1.10,2013-02-11 20:56:00,
2013-02-11 16:12:00,54.5,54.0,30.02,SSW,205,0.0,4.0,97,0.00,,,0.28,weatherlink.com 1.10,2013-02-11 21:12:00,
2013-02-11 16:29:00,54.4,54.0,30.03,WNW,283,0.0,5.0,97,0.00,,,0.28,weatherlink.com 1.10,2013-02-11 21:29:00,
2013-02-11 16:45:00,54.3,54.0,30.06,NW,306,3.0,7.0,97,0.00,,,0.28,weatherlink.com 1.10,2013-02-11 21:45:00,
2013-02-11 17:00:00,53.7,52.6,30.04,SSE,164,4.0,7.0,96,0.00,,---,0.28,VWS V14.01,2013-02-11 22:00:00,
2013-02-11 17:02:00,54.2,53.0,30.04,SW,234,2.0,4.0,97,0.00,,,0.28,weatherlink.com 1.10,2013-02-11 22:02:00,
2013-02-11 17:18:00,54.0,53.0,30.02,SSE,158,2.0,6.0,97,0.00,,,0.28,weatherlink.com 1.10,2013-02-11 22:18:00,
2013-02-11 17:35:00,54.0,53.0,30.06,West,275,2.0,6.0,97,0.00,,,0.28,weatherlink.com 1.10,2013-02-11 22:35:00,
2013-02-11 17:51:00,53.8,53.0,30.04,West,267,1.0,4.0,97,0.00,,,0.28,weatherlink.com 1.10,2013-02-11 22:51:00,
2013-02-11 18:07:00,53.6,53.0,30.05,SW,223,4.0,7.0,96,0.00,,,0.28,weatherlink.com 1.10,2013-02-11 23:07:00,
2013-02-11 18:40:00,53.3,52.0,30.05,SW,233,2.0,7.0,96,0.00,,,0.28,weatherlink.com 1.10,2013-02-11 23:40:00,
2013-02-11 18:57:00,53.1,52.0,30.06,WNW,284,2.0,5.0,96,0.00,,,0.28,weatherlink.com 1.10,2013-02-11 23:57:00,
2013-02-11 19:00:00,52.2,51.1,30.04,WSW,238,1.0,7.0,96,0.00,,---,0.28,VWS V14.01,2013-02-12 00:00:00,
2013-02-11 19:13:00,52.9,52.0,30.05,NNW,333,0.0,2.0,96,0.00,,,0.28,weatherlink.com 1.10,2013-02-12 00:13:00,
2013-02-11 19:29:00,52.7,52.0,30.05,West,275,0.0,2.0,96,0.00,,,0.28,weatherlink.com 1.10,2013-02-12 00:29:00,
2013-02-11 19:46:00,52.4,51.0,30.05,West,264,1.0,3.0,96,0.00,,,0.28,weatherlink.com 1.10,2013-02-12 00:46:00,
2013-02-11 20:02:00,52.2,51.0,30.05,West,263,2.0,3.0,97,0.00,,,0.28,weatherlink.com 1.10,2013-02-12 01:02:00,
2013-02-11 20:18:00,51.9,51.0,30.05,WNW,299,1.0,4.0,97,0.00,,,0.28,weatherlink.com 1.10,2013-02-12 01:18:00,
2013-02-11 20:35:00,51.8,51.0,30.05,WNW,284,2.0,3.0,97,0.00,,,0.28,weatherlink.com 1.10,2013-02-12 01:35:00,
2013-02-11 20:51:00,51.6,51.0,30.06,WNW,288,2.0,4.0,97,0.00,,,0.28,weatherlink.com 1.10,2013-02-12 01:51:00,
2013-02-11 21:00:00,50.9,49.8,30.04,West,271,2.0,5.0,96,0.00,,---,0.28,VWS V14.01,2013-02-12 02:00:00,
2013-02-11 21:08:00,51.4,51.0,30.06,SW,227,3.0,5.0,97,0.00,,,0.28,weatherlink.com 1.10,2013-02-12 02:08:00,
2013-02-11 21:24:00,51.3,51.0,30.05,West,273,1.0,7.0,97,0.00,,,0.28,weatherlink.com 1.10,2013-02-12 02:24:00,
2013-02-11 21:40:00,51.2,50.0,30.03,West,271,1.0,3.0,96,0.00,,,0.28,weatherlink.com 1.10,2013-02-12 02:40:00,
2013-02-11 21:57:00,50.9,50.0,30.04,NW,323,2.0,3.0,96,0.00,,,0.28,weatherlink.com 1.10,2013-02-12 02:57:00,
2013-02-11 22:13:00,50.8,50.0,30.04,NW,311,0.0,4.0,96,0.00,,,0.28,weatherlink.com 1.10,2013-02-12 03:13:00,
2013-02-11 22:30:00,50.6,50.0,30.04,SW,231,2.0,4.0,96,0.00,,,0.28,weatherlink.com 1.10,2013-02-12 03:30:00,
2013-02-11 22:45:00,50.4,49.0,30.05,West,265,3.0,5.0,96,0.00,,,0.28,weatherlink.com 1.10,2013-02-12 03:45:00,
2013-02-11 23:00:00,50.2,47.4,30.06,WNW,300,4.0,7.0,90,0.00,,---,0.28,VWS V14.01,2013-02-12 04:00:00,
2013-02-11 23:03:00,50.4,49.0,30.07,NW,308,5.0,9.0,95,0.00,,,0.28,weatherlink.com 1.10,2013-02-12 04:03:00,
2013-02-11 23:19:00,50.4,49.0,30.04,NW,305,4.0,6.0,93,0.00,,,0.28,weatherlink.com 1.10,2013-02-12 04:19:00,
2013-02-11 23:35:00,50.3,48.0,30.08,WNW,284,6.0,7.0,92,0.00,,,0.28,weatherlink.com 1.10,2013-02-12 04:35:00,
2013-02-11 23:52:00,50.3,48.0,30.07,West,261,3.0,7.0,91,0.00,,,0.28,weatherlink.com 1.10,2013-02-12 04:52:00,